This demonstration page uses our WeatherBlox Daily Observations layout. Learn more.

36.17497, -115.13722

Hourly Observations for November 3, 2019

Temp ( °F °C ) Dew Point ( °F °C ) Humidity (%) Winds ( mph kmh ) Pressure ( in mb ) Visibility ( mi km ) Precip ( " mm )
12:53 am 00:53 Clear 55 12.8 11 -11.7 17 17 W 6 9 30.11 1020 10 16.0934 0 0
1:53 am 01:53 Clear 51 10.6 14 -10 23 23 WNW 7 11 30.11 1020 10 16.0934 0 0
1:53 am 01:53 Clear 51 10.6 14 -10 23 23 WNW 5 7 30.11 1020 10 16.0934 0 0
2:53 am 02:53 Clear 48 8.9 15 -9.4 27 27 NNW 3 6 30.1 1019 10 16.0934 0 0
3:53 am 03:53 Clear 46 7.8 13 -10.6 26 26 WNW 6 9 30.11 1020 10 16.0934 0 0
4:53 am 04:53 Clear 47 8.3 15 -9.4 28 28 WNW 3 6 30.11 1020 10 16.0934 0 0
5:53 am 05:53 Clear 48 8.9 12 -11.1 23 23 WNW 3 6 30.11 1020 10 16.0934 0 0
6:53 am 06:53 Sunny 49 9.4 14 -10 25 25 WNW 6 9 30.13 1020 10 16.0934 0 0
7:53 am 07:53 Sunny 56 13.3 12 -11.1 17 17 NW 7 11 30.13 1020 10 16.0934 0 0
8:53 am 08:53 Sunny 64 17.8 11 -11.7 12 12 NNE 3 6 30.12 1020 10 16.0934 0 0
9:53 am 09:53 Sunny 64 17.8 10 -12.2 12 12 SE 8 13 30.11 1020 10 16.0934 0 0
10:53 am 10:53 Sunny 67 19.4 12 -11.1 12 12 Calm 30.1 1019 10 16.0934 0 0
11:53 am 11:53 Sunny 70 21.1 10 -12.2 10 10 ESE 5 7 30.06 1018 10 16.0934 0 0
12:53 pm 12:53 Sunny 72 22.2 8 -13.3 8 8 SE 5 7 30.03 1017 10 16.0934 0 0
1:53 pm 13:53 Sunny 73 22.8 7 -13.9 7 7 Calm 30.01 1016 10 16.0934 0 0
2:53 pm 14:53 Sunny 74 23.3 8 -13.3 8 8 Calm 30 1016 10 16.0934 0 0
3:53 pm 15:53 Sunny 73 22.8 8 -13.3 8 8 Calm 29.99 1016 10 16.0934 0 0
4:53 pm 16:53 Clear 71 21.7 9 -12.8 9 9 Calm 29.99 1016 10 16.0934 0 0
5:53 pm 17:53 Clear 66 18.9 16 -8.9 14 14 Calm 30.01 1016 10 16.0934 0 0
6:53 pm 18:53 Clear 62 16.7 19 -7.2 19 19 WNW 6 9 30.01 1016 10 16.0934 0 0
7:53 pm 19:53 Clear 59 15 17 -8.3 19 19 NW 6 9 30 1016 10 16.0934 0 0
8:53 pm 20:53 Clear 57 13.9 16 -8.9 20 20 WNW 8 13 30.01 1016 10 16.0934 0 0
9:53 pm 21:53 Clear 54 12.2 16 -8.9 22 22 Calm 30.01 1016 10 16.0934 0 0
10:53 pm 22:53 Clear 54 12.2 16 -8.9 22 22 WNW 6 9 30.01 1016 10 16.0934 0 0
11:53 pm 23:53 Clear 53 11.7 17 -8.3 24 24 WNW 5 7 30.01 1016 10 16.0934 0 0

Powered by AerisWeather